Location: Litvinovka
(48.6667°N, 34.3500°E)
Time: 10:55:48
(UTC+00:00)

Cosmos 2297 Rocket - Pass Details

Date: 18 September 2020
Orbit: 838 x 845 km, 71.0° (Epoch: 25 October)

Event Time Altitude Azimuth Distance (km) Brightness Sun altitude
Rises 22:40:59 0° 335° (NNW) 3,414 5.9 -38.0°
Reaches altitude 10° 22:43:40 10° 344° (NNW) 2,476 5.1 -37.9°
Enters shadow 22:47:27 31° 20° (NNE) 1,447 3.8 -37.6°
